QPF
0.01 0.02 0.02 0.03 0.03 0.02 0.03 0.03 0.04 0.05 0.04 0.03 0.03 0.04 0.04 0.04 0.04 0.03 0.03 0.04 0.04 0.05 0.05 0.05 0.04 0.05 0.06 0.08 0.11 0.11 0.09 0.06 0.06 0.05 0.05 0.05 0.05 0.06 0.06 0.06 0.04 0.03 0.03
0.01 0.01 0.02 0.03 0.02 0.02 0.02 0.02 0.03 0.04 0.04 0.03 0.04 0.03 0.03 0.03 0.03 0.03 0.03 0.03 0.03 0.03 0.03 0.04 0.04 0.04 0.04 0.05 0.06 0.05 0.04 0.05 0.04 0.04 0.05 0.05 0.04 0.05 0.06 0.06 0.04 0.03 0.03
0.00 0.00 0.01 0.02 0.02 0.02 0.02 0.03 0.04 0.04 0.03 0.03 0.03 0.03 0.02 0.02 0.02 0.02 0.02 0.02 0.02 0.03 0.03 0.04 0.04 0.04 0.03 0.04 0.05 0.05 0.04 0.04 0.04 0.05 0.05 0.04 0.04 0.04 0.05 0.04 0.04 0.04 0.03
0.00 0.00 0.01 0.02 0.03 0.02 0.02 0.03 0.04 0.04 0.03 0.03 0.02 0.03 0.03 0.02 0.01 0.01 0.01 0.01 0.02 0.03 0.03 0.03 0.03 0.02 0.02 0.03 0.04 0.04 0.03 0.03 0.04 0.05 0.04 0.03 0.03 0.03 0.04 0.04 0.05 0.05 0.03
0.00 0.00 0.01 0.01 0.02 0.02 0.03 0.03 0.03 0.03 0.02 0.03 0.03 0.04 0.03 0.03 0.02 0.01 0.01 0.02 0.02 0.02 0.03 0.03 0.02 0.01 0.01 0.01 0.02 0.02 0.03 0.02 0.03 0.03 0.03 0.03 0.03 0.02 0.03 0.04 0.04 0.04 0.03
0.01 0.01 0.01 0.01 0.01 0.02 0.02 0.02 0.02 0.02 0.02 0.02 0.03 0.03 0.02 0.02 0.01 0.01 0.01 0.01 0.01 0.02 0.02 0.01 0.01 0.01 0.01 0.01 0.01 0.02 0.02 0.02 0.03 0.04 0.03 0.03 0.03 0.03 0.03 0.03 0.02 0.02 0.03
0.01 0.01 0.01 0.01 0.01 0.01 0.01 0.01 0.01 0.01 0.01 0.01 0.02 0.01 0.02 0.02 0.02 0.01 0.01 0.01 0.01 0.02 0.02 0.01 0.01 0.00 0.00 0.00 0.01 0.01 0.02 0.02 0.03 0.02 0.02 0.02 0.02 0.02 0.02 0.03 0.03 0.03 0.03
0.01 0.01 0.01 0.01 0.01 0.01 0.00 0.01 0.01 0.01 0.01 0.01 0.01 0.01 0.02 0.02 0.02 0.02 0.01 0.01 0.01 0.01 0.01 0.01 0.01 0.01 0.00 0.01 0.01 0.01 0.01 0.01 0.01 0.00 0.01 0.01 0.01 0.02 0.02 0.02 0.03 0.03 0.04
0.00 0.01 0.01 0.01 0.01 0.01 0.01 0.01 0.01 0.01 0.01 0.01 0.01 0.02 0.02 0.03 0.03 0.03 0.02 0.01 0.02 0.02 0.01 0.01 0.01 0.02 0.02 0.01 0.01 0.01 0.00 0.00 0.00 0.00 0.00 0.00 0.00 0.00 0.01 0.02 0.02 0.02 0.02
0.00 0.00 0.01 0.01 0.01 0.01 0.01 0.01 0.01 0.02 0.02 0.01 0.01 0.01 0.02 0.03 0.04 0.03 0.02 0.01 0.02 0.03 0.03 0.02 0.03 0.02 0.02 0.01 0.01 0.01 0.01 0.01 0.01 0.01 0.01 0.01 0.00 0.00 0.00 0.01 0.02 0.02 0.02
0.01 0.00 0.01 0.01 0.01 0.01 0.01 0.01 0.02 0.02 0.02 0.02 0.02 0.02 0.02 0.03 0.03 0.02 0.01 0.01 0.02 0.03 0.03 0.03 0.02 0.02 0.02 0.01 0.01 0.02 0.01 0.01 0.01 0.02 0.02 0.01 0.00 0.00 0.00 0.00 0.01 0.01 0.02
0.00 0.01 0.01 0.01 0.01 0.01 0.01 0.01 0.01 0.01 0.01 0.01 0.02 0.02 0.02 0.03 0.02 0.01 0.01 0.01 0.01 0.02 0.02 0.02 0.01 0.02 0.02 0.01 0.01 0.01 0.01 0.01 0.01 0.01 0.01 0.01 0.00 0.00 0.00 0.00 0.01 0.01 0.02
0.01 0.01 0.01 0.01 0.02 0.02 0.02 0.02 0.01 0.01 0.01 0.01 0.01 0.01 0.02 0.02 0.01 0.01 0.01 0.01 0.01 0.01 0.01 0.01 0.01 0.01 0.01 0.01 0.00 0.00 0.00 0.01 0.01 0.01 0.01 0.01 0.01 0.00 0.00 0.00 0.01 0.01 0.02
0.03 0.02 0.02 0.02 0.02 0.02 0.02 0.02 0.01 0.01 0.01 0.02 0.02 0.02 0.02 0.01 0.00 0.00 0.01 0.01 0.00 0.01 0.00 0.00 0.00 0.01 0.01 0.01 0.01 0.01 0.01 0.01 0.01 0.01 0.01 0.01 0.01 0.01 0.01 0.01 0.01 0.01 0.01
0.03 0.04 0.02 0.02 0.02 0.02 0.02 0.02 0.02 0.02 0.02 0.03 0.02 0.02 0.01 0.01 0.01 0.00 0.00 0.00 0.00 0.00 0.00 0.00 0.01 0.01 0.01 0.01 0.01 0.01 0.01 0.01 0.01 0.01 0.01 0.01 0.02 0.01 0.01 0.01 0.01 0.01 0.01
0.03 0.03 0.02 0.01 0.01 0.02 0.03 0.04 0.03 0.04 0.04 0.03 0.03 0.02 0.01 0.01 0.00 0.00 0.00 0.00 0.00 0.00 0.00 0.01 0.01 0.01 0.01 0.01 0.01 0.02 0.02 0.02 0.02 0.02 0.02 0.02 0.02 0.02 0.02 0.01 0.01 0.01 0.01
0.03 0.03 0.03 0.02 0.02 0.02 0.03 0.04 0.05 0.05 0.05 0.05 0.04 0.03 0.02 0.01 0.01 0.01 0.00 0.00 0.00 0.00 0.00 0.01 0.01 0.01 0.01 0.01 0.01 0.01 0.01 0.02 0.02 0.03 0.03 0.03 0.03 0.04 0.03 0.03 0.02 0.02 0.02
0.04 0.05 0.04 0.03 0.03 0.04 0.04 0.04 0.04 0.04 0.05 0.04 0.04 0.02 0.02 0.02 0.01 0.01 0.01 0.00 0.00 0.00 0.00 0.00 0.00 0.00 0.00 0.01 0.01 0.01 0.01 0.01 0.02 0.03 0.03 0.04 0.04 0.05 0.05 0.05 0.04 0.04 0.04
0.04 0.05 0.04 0.04 0.04 0.04 0.04 0.03 0.03 0.03 0.04 0.04 0.04 0.03 0.02 0.01 0.01 0.01 0.01 0.00 0.00 0.01 0.01 0.01 0.01 0.01 0.01 0.01 0.01 0.01 0.01 0.01 0.01 0.02 0.03 0.03 0.04 0.05 0.05 0.05 0.05 0.04 0.03
0.04 0.05 0.05 0.05 0.05 0.05 0.05 0.04 0.04 0.03 0.03 0.03 0.03 0.03 0.02 0.01 0.01 0.01 0.01 0.01 0.01 0.01 0.02 0.02 0.01 0.01 0.01 0.01 0.01 0.01 0.01 0.01 0.01 0.01 0.02 0.03 0.03 0.04 0.04 0.05 0.04 0.04 0.03
0.04 0.06 0.07 0.06 0.06 0.07 0.06 0.04 0.04 0.03 0.03 0.03 0.03 0.02 0.03 0.01 0.01 0.01 0.01 0.01 0.01 0.01 0.01 0.01 0.01 0.01 0.01 0.01 0.01 0.01 0.02 0.02 0.02 0.02 0.02 0.02 0.03 0.03 0.03 0.04 0.04 0.03 0.03
0.05 0.06 0.06 0.05 0.05 0.05 0.05 0.05 0.04 0.03 0.03 0.03 0.03 0.03 0.03 0.02 0.01 0.01 0.01 0.01 0.01 0.00 0.00 0.00 0.01 0.01 0.01 0.01 0.01 0.01 0.01 0.01 0.02 0.02 0.02 0.02 0.02 0.02 0.03 0.03 0.03 0.03 0.03
0.06 0.06 0.05 0.04 0.03 0.04 0.04 0.05 0.05 0.05 0.04 0.03 0.03 0.03 0.04 0.04 0.03 0.02 0.01 0.01 0.00 0.00 0.00 0.00 0.01 0.01 0.01 0.01 0.01 0.01 0.01 0.01 0.01 0.02 0.02 0.02 0.03 0.03 0.03 0.03 0.03 0.03 0.02
0.07 0.06 0.05 0.04 0.05 0.05 0.05 0.05 0.04 0.03 0.03 0.03 0.04 0.04 0.05 0.05 0.04 0.04 0.02 0.01 0.01 0.01 0.00 0.01 0.01 0.01 0.01 0.01 0.01 0.02 0.02 0.02 0.02 0.02 0.02 0.03 0.03 0.04 0.04 0.04 0.03 0.03 0.03
0.08 0.09 0.09 0.08 0.08 0.06 0.04 0.04 0.03 0.03 0.04 0.04 0.04 0.04 0.04 0.04 0.04 0.04 0.03 0.03 0.02 0.02 0.01 0.01 0.01 0.01 0.01 0.01 0.01 0.01 0.02 0.02 0.03 0.03 0.03 0.03 0.03 0.04 0.04 0.04 0.04 0.04 0.03
0.08 0.09 0.11 0.12 0.12 0.10 0.08 0.06 0.06 0.05 0.04 0.04 0.04 0.04 0.05 0.05 0.05 0.05 0.05 0.05 0.04 0.03 0.03 0.02 0.01 0.01 0.01 0.01 0.01 0.01 0.01 0.01 0.02 0.03 0.03 0.02 0.02 0.02 0.02 0.02 0.02 0.02 0.02
MSLP
1014.93 1015.26 1015.63 1015.99 1016.29 1016.51 1016.63 1016.68 1016.67 1016.67 1016.70 1016.78 1016.93 1017.12 1017.33 1017.50 1017.60 1017.59 1017.46 1017.23 1016.93 1016.60 1016.31 1016.10 1016.01 1016.08 1016.30 1016.67 1017.16 1017.74 1018.37 1019.02 1019.66 1020.28 1020.86 1021.39 1021.88 1022.31 1022.68 1022.99 1023.23 1023.42 1023.54
1014.59 1014.92 1015.31 1015.70 1016.05 1016.33 1016.53 1016.64 1016.70 1016.74 1016.79 1016.88 1017.01 1017.19 1017.39 1017.56 1017.69 1017.74 1017.69 1017.55 1017.33 1017.08 1016.82 1016.62 1016.51 1016.51 1016.64 1016.91 1017.30 1017.79 1018.36 1018.97 1019.60 1020.23 1020.84 1021.42 1021.94 1022.41 1022.82 1023.16 1023.44 1023.67 1023.84
1014.26 1014.60 1015.00 1015.41 1015.80 1016.14 1016.40 1016.58 1016.71 1016.79 1016.88 1016.98 1017.11 1017.28 1017.46 1017.64 1017.79 1017.89 1017.91 1017.85 1017.72 1017.54 1017.34 1017.16 1017.04 1016.99 1017.05 1017.23 1017.53 1017.94 1018.43 1019.00 1019.60 1020.23 1020.85 1021.44 1021.99 1022.47 1022.90 1023.25 1023.55 1023.79 1023.99
1013.97 1014.31 1014.71 1015.13 1015.55 1015.92 1016.24 1016.48 1016.67 1016.81 1016.93 1017.05 1017.19 1017.35 1017.53 1017.71 1017.88 1018.01 1018.09 1018.10 1018.04 1017.94 1017.79 1017.65 1017.52 1017.45 1017.46 1017.57 1017.78 1018.11 1018.54 1019.04 1019.61 1020.21 1020.82 1021.41 1021.95 1022.44 1022.86 1023.22 1023.51 1023.76 1023.98
1013.74 1014.06 1014.45 1014.87 1015.29 1015.68 1016.03 1016.33 1016.57 1016.76 1016.92 1017.07 1017.22 1017.39 1017.56 1017.74 1017.92 1018.07 1018.19 1018.25 1018.26 1018.21 1018.13 1018.01 1017.90 1017.82 1017.80 1017.85 1018.01 1018.26 1018.62 1019.06 1019.58 1020.14 1020.71 1021.27 1021.79 1022.26 1022.67 1023.02 1023.32 1023.57 1023.80
1013.58 1013.89 1014.25 1014.64 1015.04 1015.43 1015.79 1016.11 1016.39 1016.62 1016.83 1017.01 1017.17 1017.35 1017.52 1017.70 1017.88 1018.04 1018.18 1018.29 1018.34 1018.35 1018.31 1018.24 1018.16 1018.09 1018.04 1018.07 1018.17 1018.36 1018.65 1019.03 1019.48 1019.97 1020.49 1021.00 1021.49 1021.93 1022.32 1022.65 1022.95 1023.21 1023.47
1013.53 1013.81 1014.12 1014.46 1014.81 1015.17 1015.52 1015.85 1016.14 1016.41 1016.64 1016.85 1017.04 1017.21 1017.39 1017.56 1017.74 1017.91 1018.06 1018.19 1018.29 1018.35 1018.36 1018.34 1018.30 1018.24 1018.21 1018.21 1018.28 1018.42 1018.65 1018.95 1019.33 1019.75 1020.19 1020.64 1021.07 1021.46 1021.82 1022.14 1022.43 1022.71 1022.98
1013.60 1013.82 1014.07 1014.33 1014.62 1014.93 1015.24 1015.55 1015.85 1016.13 1016.38 1016.61 1016.81 1017.00 1017.17 1017.34 1017.51 1017.68 1017.85 1018.00 1018.14 1018.24 1018.31 1018.34 1018.34 1018.33 1018.32 1018.33 1018.38 1018.48 1018.65 1018.88 1019.17 1019.50 1019.86 1020.23 1020.58 1020.92 1021.23 1021.53 1021.81 1022.09 1022.39
1013.79 1013.94 1014.10 1014.29 1014.50 1014.73 1015.00 1015.28 1015.57 1015.84 1016.11 1016.35 1016.56 1016.75 1016.92 1017.08 1017.25 1017.41 1017.59 1017.76 1017.92 1018.07 1018.19 1018.28 1018.35 1018.39 1018.41 1018.44 1018.48 1018.56 1018.68 1018.85 1019.05 1019.29 1019.56 1019.84 1020.11 1020.38 1020.64 1020.89 1021.16 1021.44 1021.74
1014.07 1014.15 1014.22 1014.32 1014.45 1014.61 1014.82 1015.07 1015.33 1015.60 1015.87 1016.11 1016.33 1016.52 1016.69 1016.84 1017.00 1017.16 1017.33 1017.51 1017.70 1017.88 1018.05 1018.21 1018.33 1018.42 1018.49 1018.55 1018.60 1018.67 1018.75 1018.86 1018.99 1019.15 1019.32 1019.51 1019.70 1019.89 1020.09 1020.30 1020.54 1020.80 1021.09
1014.40 1014.41 1014.41 1014.43 1014.48 1014.59 1014.75 1014.96 1015.20 1015.47 1015.73 1015.98 1016.19 1016.38 1016.54 1016.68 1016.82 1016.97 1017.13 1017.31 1017.51 1017.72 1017.92 1018.12 1018.29 1018.44 1018.55 1018.64 1018.71 1018.77 1018.82 1018.89 1018.96 1019.04 1019.14 1019.25 1019.36 1019.49 1019.63 1019.79 1019.99 1020.22 1020.49
1014.76 1014.70 1014.64 1014.59 1014.59 1014.66 1014.78 1014.97 1015.21 1015.46 1015.72 1015.97 1016.19 1016.37 1016.51 1016.64 1016.76 1016.88 1017.02 1017.19 1017.38 1017.59 1017.80 1018.02 1018.22 1018.39 1018.53 1018.64 1018.72 1018.78 1018.82 1018.86 1018.89 1018.93 1018.97 1019.02 1019.08 1019.15 1019.25 1019.37 1019.53 1019.72 1019.97
1015.08 1014.98 1014.87 1014.79 1014.76 1014.80 1014.92 1015.09 1015.33 1015.59 1015.85 1016.10 1016.31 1016.49 1016.62 1016.72 1016.81 1016.91 1017.01 1017.14 1017.30 1017.48 1017.68 1017.89 1018.08 1018.25 1018.40 1018.51 1018.59 1018.64 1018.68 1018.69 1018.71 1018.72 1018.73 1018.75 1018.79 1018.84 1018.91 1019.01 1019.14 1019.31 1019.53
1015.35 1015.21 1015.09 1014.99 1014.95 1014.99 1015.11 1015.29 1015.53 1015.80 1016.07 1016.32 1016.54 1016.70 1016.83 1016.91 1016.97 1017.02 1017.08 1017.16 1017.26 1017.39 1017.54 1017.70 1017.85 1017.99 1018.10 1018.19 1018.25 1018.29 1018.31 1018.33 1018.33 1018.34 1018.36 1018.39 1018.43 1018.49 1018.57 1018.68 1018.81 1018.97 1019.17
1015.53 1015.39 1015.26 1015.16 1015.13 1015.18 1015.31 1015.51 1015.76 1016.04 1016.32 1016.57 1016.79 1016.96 1017.07 1017.13 1017.16 1017.17 1017.18 1017.20 1017.24 1017.30 1017.37 1017.45 1017.52 1017.59 1017.65 1017.68 1017.71 1017.72 1017.72 1017.73 1017.75 1017.78 1017.83 1017.90 1017.98 1018.09 1018.21 1018.35 1018.51 1018.69 1018.89
1015.65 1015.50 1015.37 1015.29 1015.27 1015.33 1015.47 1015.68 1015.94 1016.22 1016.51 1016.77 1016.99 1017.16 1017.27 1017.32 1017.33 1017.31 1017.28 1017.24 1017.21 1017.18 1017.16 1017.14 1017.13 1017.10 1017.08 1017.04 1017.01 1016.98 1016.97 1016.97 1017.01 1017.07 1017.17 1017.30 1017.45 1017.62 1017.81 1018.02 1018.23 1018.44 1018.66
1015.69 1015.55 1015.43 1015.36 1015.35 1015.41 1015.56 1015.76 1016.02 1016.30 1016.59 1016.85 1017.08 1017.25 1017.36 1017.42 1017.42 1017.39 1017.32 1017.24 1017.15 1017.05 1016.94 1016.83 1016.72 1016.60 1016.48 1016.37 1016.27 1016.19 1016.15 1016.15 1016.20 1016.30 1016.45 1016.65 1016.88 1017.14 1017.42 1017.70 1017.97 1018.24 1018.49
1015.70 1015.57 1015.45 1015.38 1015.37 1015.43 1015.56 1015.75 1015.99 1016.26 1016.53 1016.79 1017.02 1017.19 1017.32 1017.38 1017.40 1017.36 1017.29 1017.19 1017.06 1016.91 1016.74 1016.56 1016.36 1016.16 1015.95 1015.77 1015.60 1015.48 1015.41 1015.40 1015.46 1015.59 1015.79 1016.05 1016.36 1016.70 1017.06 1017.41 1017.75 1018.07 1018.36
1015.68 1015.55 1015.44 1015.36 1015.34 1015.38 1015.48 1015.64 1015.85 1016.10 1016.35 1016.59 1016.81 1017.00 1017.13 1017.22 1017.26 1017.24 1017.19 1017.09 1016.95 1016.78 1016.58 1016.35 1016.10 1015.84 1015.58 1015.34 1015.12 1014.96 1014.86 1014.84 1014.90 1015.05 1015.29 1015.60 1015.96 1016.36 1016.78 1017.19 1017.59 1017.94 1018.25
1015.65 1015.52 1015.41 1015.32 1015.28 1015.29 1015.36 1015.48 1015.66 1015.86 1016.08 1016.31 1016.52 1016.70 1016.85 1016.96 1017.02 1017.04 1017.01 1016.94 1016.83 1016.67 1016.47 1016.24 1015.97 1015.69 1015.40 1015.13 1014.89 1014.70 1014.57 1014.54 1014.59 1014.75 1014.99 1015.32 1015.71 1016.14 1016.59 1017.04 1017.46 1017.83 1018.15
1015.59 1015.47 1015.36 1015.26 1015.21 1015.19 1015.23 1015.32 1015.45 1015.61 1015.80 1015.99 1016.18 1016.36 1016.51 1016.64 1016.73 1016.78 1016.79 1016.76 1016.69 1016.57 1016.40 1016.19 1015.95 1015.68 1015.41 1015.13 1014.89 1014.69 1014.55 1014.50 1014.54 1014.68 1014.91 1015.23 1015.61 1016.04 1016.48 1016.92 1017.34 1017.71 1018.02
1015.51 1015.40 1015.29 1015.20 1015.13 1015.11 1015.12 1015.18 1015.27 1015.40 1015.55 1015.71 1015.88 1016.04 1016.18 1016.31 1016.42 1016.49 1016.54 1016.55 1016.52 1016.45 1016.34 1016.18 1015.99 1015.77 1015.53 1015.28 1015.06 1014.87 1014.73 1014.67 1014.68 1014.79 1014.99 1015.27 1015.61 1016.00 1016.41 1016.81 1017.20 1017.54 1017.82
1015.38 1015.29 1015.21 1015.13 1015.07 1015.04 1015.05 1015.09 1015.16 1015.26 1015.38 1015.51 1015.64 1015.78 1015.90 1016.02 1016.12 1016.20 1016.27 1016.31 1016.32 1016.30 1016.25 1016.16 1016.03 1015.87 1015.69 1015.49 1015.30 1015.14 1015.01 1014.93 1014.92 1014.99 1015.13 1015.35 1015.63 1015.95 1016.29 1016.65 1016.98 1017.28 1017.53
1015.21 1015.15 1015.09 1015.04 1015.00 1014.99 1015.01 1015.05 1015.12 1015.20 1015.29 1015.39 1015.49 1015.59 1015.68 1015.77 1015.85 1015.92 1015.99 1016.04 1016.07 1016.09 1016.09 1016.06 1016.00 1015.91 1015.80 1015.66 1015.52 1015.39 1015.27 1015.19 1015.16 1015.18 1015.26 1015.40 1015.60 1015.84 1016.11 1016.39 1016.67 1016.92 1017.14
1015.00 1014.96 1014.94 1014.92 1014.92 1014.94 1014.97 1015.03 1015.10 1015.18 1015.26 1015.33 1015.40 1015.46 1015.52 1015.56 1015.61 1015.65 1015.69 1015.74 1015.78 1015.83 1015.86 1015.88 1015.88 1015.86 1015.81 1015.74 1015.65 1015.55 1015.45 1015.37 1015.31 1015.28 1015.31 1015.38 1015.49 1015.65 1015.84 1016.05 1016.27 1016.49 1016.69
1014.75 1014.74 1014.74 1014.76 1014.79 1014.84 1014.90 1014.98 1015.07 1015.15 1015.22 1015.28 1015.33 1015.36 1015.37 1015.38 1015.38 1015.38 1015.40 1015.42 1015.46 1015.51 1015.57 1015.63 1015.68 1015.71 1015.72 1015.71 1015.67 1015.60 1015.52 1015.44 1015.36 1015.30 1015.27 1015.27 1015.31 1015.40 1015.52 1015.67 1015.84 1016.03 1016.22
Thickness
5795 5792 5789 5785 5783 5780 5777 5774 5771 5769 5766 5764 5762 5759 5757 5755 5754 5752 5750 5748 5746 5744 5743 5741 5738 5737 5735 5733 5731 5728 5725 5720 5710 5705 5704 5702 5699 5696 5692 5689 5686 5683 5679
5796 5792 5788 5785 5782 5778 5775 5773 5770 5767 5764 5762 5760 5757 5755 5752 5751 5748 5746 5744 5742 5739 5737 5736 5734 5734 5731 5729 5727 5724 5721 5718 5711 5702 5698 5696 5694 5692 5689 5686 5683 5679 5675
5797 5791 5787 5783 5780 5777 5774 5771 5768 5765 5762 5760 5757 5754 5751 5749 5747 5745 5743 5740 5738 5735 5733 5731 5729 5727 5725 5724 5722 5720 5717 5715 5709 5702 5695 5692 5689 5688 5684 5682 5679 5675 5672
5796 5791 5785 5782 5779 5776 5773 5769 5766 5763 5759 5757 5754 5751 5748 5746 5743 5741 5739 5736 5733 5731 5728 5726 5723 5721 5720 5719 5716 5714 5712 5708 5704 5698 5692 5687 5684 5683 5680 5676 5672 5670 5668
5796 5790 5785 5782 5778 5775 5771 5767 5764 5760 5758 5754 5750 5747 5745 5742 5739 5736 5734 5732 5729 5726 5723 5721 5718 5716 5714 5713 5711 5708 5705 5702 5698 5693 5687 5683 5679 5676 5674 5673 5669 5665 5662
5795 5789 5785 5780 5776 5772 5768 5764 5760 5757 5754 5751 5747 5744 5741 5738 5733 5731 5729 5727 5725 5721 5718 5716 5713 5711 5709 5706 5704 5701 5699 5696 5692 5688 5683 5678 5674 5672 5670 5669 5665 5660 5656
5793 5788 5783 5779 5774 5770 5766 5761 5757 5753 5750 5746 5743 5739 5735 5731 5729 5726 5724 5723 5720 5717 5715 5712 5711 5707 5704 5701 5698 5696 5693 5690 5688 5685 5679 5675 5672 5669 5666 5663 5660 5656 5652
5791 5786 5782 5777 5772 5767 5763 5758 5755 5751 5747 5743 5739 5735 5731 5727 5724 5721 5719 5718 5716 5713 5710 5707 5703 5700 5698 5696 5694 5690 5687 5684 5682 5680 5677 5673 5670 5667 5663 5660 5657 5653 5650
5789 5785 5781 5776 5770 5765 5760 5756 5752 5748 5744 5740 5736 5731 5727 5722 5719 5716 5714 5713 5710 5707 5704 5701 5698 5695 5692 5690 5688 5684 5681 5678 5676 5674 5671 5668 5664 5661 5658 5654 5651 5646 5641
5787 5783 5779 5775 5769 5763 5758 5753 5749 5745 5740 5737 5732 5728 5724 5719 5714 5712 5708 5709 5705 5702 5698 5695 5691 5689 5686 5684 5682 5679 5675 5673 5671 5668 5665 5662 5659 5656 5652 5648 5644 5639 5635
5786 5781 5776 5771 5766 5761 5755 5750 5746 5741 5737 5732 5728 5724 5720 5715 5710 5707 5704 5703 5701 5698 5694 5690 5685 5682 5679 5677 5675 5672 5669 5667 5666 5664 5661 5658 5654 5651 5647 5643 5640 5635 5629
5782 5776 5771 5767 5763 5758 5751 5746 5742 5737 5731 5727 5722 5718 5715 5710 5705 5701 5698 5695 5693 5691 5688 5685 5680 5676 5673 5671 5668 5666 5664 5662 5661 5659 5656 5652 5649 5645 5642 5639 5635 5631 5627
5776 5770 5766 5762 5757 5752 5746 5741 5736 5731 5727 5722 5718 5713 5709 5705 5699 5695 5691 5688 5686 5684 5681 5677 5673 5670 5667 5665 5662 5660 5658 5656 5654 5651 5649 5647 5645 5642 5638 5634 5630 5625 5621
5769 5764 5760 5755 5750 5746 5742 5737 5732 5727 5723 5719 5714 5710 5706 5701 5695 5689 5685 5681 5678 5675 5673 5669 5666 5664 5661 5658 5657 5654 5652 5649 5647 5645 5643 5641 5639 5636 5631 5628 5623 5619 5613
5763 5758 5754 5751 5746 5740 5735 5730 5727 5722 5719 5715 5711 5707 5701 5696 5689 5684 5680 5676 5673 5669 5665 5663 5661 5658 5656 5654 5652 5650 5647 5644 5641 5639 5636 5634 5631 5628 5624 5621 5616 5612 5606
5757 5752 5749 5745 5740 5735 5730 5722 5716 5714 5710 5707 5704 5701 5696 5690 5684 5678 5674 5670 5666 5663 5660 5658 5656 5654 5652 5650 5647 5644 5642 5639 5636 5632 5629 5626 5622 5619 5616 5613 5609 5603 5598
5752 5748 5745 5741 5736 5731 5727 5720 5712 5704 5701 5698 5696 5693 5688 5682 5678 5673 5668 5663 5660 5656 5654 5653 5651 5649 5647 5644 5642 5639 5636 5633 5630 5626 5623 5619 5615 5611 5608 5604 5599 5595 5590
5747 5743 5739 5736 5733 5728 5723 5718 5712 5705 5698 5693 5687 5683 5679 5674 5670 5665 5660 5656 5654 5650 5648 5646 5645 5643 5640 5637 5635 5632 5629 5626 5622 5618 5615 5611 5607 5603 5599 5595 5591 5586 5582
5741 5738 5734 5732 5729 5724 5720 5715 5710 5703 5697 5691 5684 5676 5670 5666 5661 5656 5651 5650 5649 5646 5643 5640 5638 5636 5633 5630 5627 5624 5622 5618 5615 5611 5607 5603 5599 5595 5590 5587 5583 5578 5574
5733 5730 5727 5725 5722 5718 5713 5708 5703 5698 5692 5687 5681 5674 5666 5660 5656 5650 5646 5645 5643 5640 5637 5634 5633 5630 5627 5624 5620 5617 5614 5611 5607 5603 5599 5594 5591 5586 5583 5579 5575 5571 5567
5725 5722 5718 5717 5714 5711 5706 5702 5697 5692 5687 5682 5677 5672 5664 5660 5656 5650 5645 5642 5638 5636 5632 5629 5627 5624 5621 5617 5614 5610 5606 5602 5598 5595 5591 5587 5583 5579 5575 5572 5568 5564 5560
5717 5715 5711 5709 5706 5703 5699 5695 5690 5686 5681 5676 5670 5666 5657 5655 5652 5648 5643 5639 5635 5630 5627 5623 5620 5618 5615 5611 5607 5603 5598 5594 5590 5586 5583 5580 5576 5572 5568 5564 5560 5556 5551
5709 5707 5703 5700 5697 5692 5688 5686 5682 5677 5673 5669 5665 5659 5652 5649 5646 5642 5638 5634 5629 5625 5621 5616 5613 5610 5607 5603 5599 5595 5590 5586 5582 5578 5575 5572 5568 5565 5561 5557 5552 5548 5544
5701 5699 5695 5691 5687 5683 5679 5675 5672 5670 5666 5661 5657 5652 5647 5643 5639 5635 5632 5628 5623 5619 5614 5610 5606 5602 5598 5594 5590 5586 5582 5578 5574 5571 5567 5564 5560 5557 5553 5548 5544 5541 5536
5692 5690 5687 5683 5678 5674 5669 5665 5662 5660 5657 5654 5650 5646 5641 5637 5632 5628 5625 5621 5616 5612 5607 5603 5598 5594 5590 5586 5581 5576 5572 5569 5565 5561 5558 5555 5552 5548 5545 5541 5537 5533 5530
5682 5680 5677 5673 5669 5665 5661 5656 5652 5651 5649 5646 5642 5639 5634 5630 5626 5622 5617 5613 5609 5604 5600 5595 5590 5587 5583 5578 5572 5568 5563 5560 5556 5552 5549 5545 5542 5540 5536 5533 5529 5525 5522